• In Russia
  • List of Countries
  • For 7 days
  • Water Temperature
  • Satellite Maps
  • Weather Map
  • Weather Widgets
  • user-avatar
    Login

    Hourly Weather Gostkowice

    Today, 23 September, Sunday

    Time Temperature Precipitation Wind Pressure Humidity
    00:00 +13°C° 0 mm 3 mps 751 mmHg 62%
    01:00 +13°C° 0 mm 4 mps 751 mmHg 64%
    02:00 +12°C° 0 mm 4 mps 751 mmHg 67%
    03:00 +12°C° 0 mm 3 mps 750 mmHg 70%
    04:00 +11°C° 0 mm 3 mps 750 mmHg 73%
    05:00 +11°C° 0 mm 3 mps 750 mmHg 73%
    06:00 +12°C° 0 mm 3 mps 750 mmHg 74%
    07:00 +12°C° 0 mm 3 mps 750 mmHg 74%
    08:00 +13°C° 0 mm 4 mps 750 mmHg 71%
    09:00 +14°C° 0 mm 4 mps 749 mmHg 68%
    10:00 +15°C° 0 mm 4 mps 749 mmHg 64%
    11:00 +14°C° 0.1 mm 4 mps 749 mmHg 67%
    12:00 +14°C° 0.1 mm 4 mps 748 mmHg 70%
    13:00 +14°C° 0.1 mm 3 mps 748 mmHg 72%
    14:00 +13°C° 0.7 mm 3 mps 747 mmHg 77%
    15:00 +13°C° 0.7 mm 3 mps 746 mmHg 81%
    16:00 +13°C° 0.7 mm 3 mps 745 mmHg 85%
    17:00 +13°C° 1 mm 4 mps 743 mmHg 86%
    18:00 +14°C° 1 mm 5 mps 742 mmHg 87%
    19:00 +14°C° 1 mm 6 mps 741 mmHg 87%
    20:00 +14°C° 1.7 mm 6 mps 740 mmHg 88%
    21:00 +13°C° 1.7 mm 6 mps 740 mmHg 88%
    22:00 +13°C° 1.7 mm 5 mps 740 mmHg 88%
    23:00 +11°C° 0.7 mm 6 mps 740 mmHg 89%

    Tomorrow, 24 September, Monday

    Time Temperature Precipitation Wind Pressure Humidity
    00:00 +10°C° 0.7 mm 6 mps 741 mmHg 89%
    01:00 +9°C° 0.7 mm 7 mps 742 mmHg 89%
    02:00 +9°C° 0.6 mm 7 mps 743 mmHg 88%
    03:00 +9°C° 0.6 mm 7 mps 745 mmHg 86%
    04:00 +8°C° 0.6 mm 7 mps 747 mmHg 85%
    05:00 +8°C° 0 mm 7 mps 748 mmHg 84%
    06:00 +7°C° 0 mm 8 mps 749 mmHg 83%
    07:00 +7°C° 0 mm 8 mps 750 mmHg 82%
    08:00 +8°C° 0.1 mm 9 mps 751 mmHg 76%
    09:00 +8°C° 0.1 mm 10 mps 752 mmHg 70%
    10:00 +9°C° 0.1 mm 10 mps 753 mmHg 64%
    11:00 +9°C° 0.2 mm 10 mps 753 mmHg 61%
    12:00 +11°C° 0.2 mm 10 mps 753 mmHg 57%
    13:00 +11°C° 0.2 mm 11 mps 754 mmHg 53%
    14:00 +11°C° 0.1 mm 10 mps 754 mmHg 52%
    15:00 +11°C° 0.1 mm 10 mps 754 mmHg 51%
    16:00 +11°C° 0.1 mm 9 mps 754 mmHg 50%
    17:00 +10°C° 0 mm 8 mps 755 mmHg 52%
    18:00 +9°C° 0 mm 7 mps 755 mmHg 55%
    19:00 +8°C° 0 mm 6 mps 756 mmHg 57%
    20:00 +7°C° 0 mm 5 mps 757 mmHg 59%
    21:00 +7°C° 0 mm 5 mps 757 mmHg 61%
    22:00 +7°C° 0 mm 5 mps 758 mmHg 63%
    23:00 +6°C° 0 mm 5 mps 758 mmHg 65%

    Day after tomorrow, 25 September, Tuesday

    Time Temperature Precipitation Wind Pressure Humidity
    00:00 +6°C° 0 mm 5 mps 759 mmHg 66%
    01:00 +6°C° 0 mm 5 mps 759 mmHg 68%
    02:00 +5°C° 0 mm 5 mps 760 mmHg 70%
    03:00 +5°C° 0 mm 5 mps 760 mmHg 72%
    04:00 +5°C° 0 mm 5 mps 760 mmHg 74%
    05:00 +5°C° 0 mm 5 mps 761 mmHg 74%
    06:00 +5°C° 0 mm 5 mps 762 mmHg 75%
    07:00 +5°C° 0 mm 5 mps 762 mmHg 75%
    08:00 +7°C° 0 mm 5 mps 763 mmHg 69%
    09:00 +8°C° 0 mm 5 mps 763 mmHg 64%
    10:00 +9°C° 0 mm 5 mps 763 mmHg 59%
    11:00 +10°C° 0.1 mm 5 mps 763 mmHg 56%
    12:00 +12°C° 0.1 mm 5 mps 763 mmHg 53%
    13:00 +12°C° 0.1 mm 5 mps 764 mmHg 50%
    14:00 +12°C° 0 mm 5 mps 763 mmHg 50%
    15:00 +12°C° 0 mm 4 mps 763 mmHg 49%
    16:00 +12°C° 0 mm 4 mps 763 mmHg 49%
    17:00 +11°C° 0 mm 3 mps 764 mmHg 53%
    18:00 +9°C° 0 mm 2 mps 764 mmHg 58%
    19:00 +9°C° 0 mm 1 mps 764 mmHg 63%
    20:00 +9°C° 0 mm 1 mps 765 mmHg 63%
    21:00 +8°C° 0 mm 1 mps 765 mmHg 64%
    22:00 +8°C° 0 mm 1 mps 765 mmHg 65%
    23:00 +7°C° 0 mm 1 mps 765 mmHg 66%

    26 September, Wednesday

    Time Temperature Precipitation Wind Pressure Humidity
    00:00 +7°C° 0 mm 1 mps 765 mmHg 67%
    01:00 +7°C° 0 mm 1 mps 765 mmHg 67%
    02:00 +6°C° 0 mm 2 mps 765 mmHg 68%
    03:00 +5°C° 0 mm 2 mps 765 mmHg 68%
    04:00 +5°C° 0 mm 2 mps 765 mmHg 69%
    05:00 +6°C° 0 mm 2 mps 765 mmHg 68%
    06:00 +6°C° 0 mm 2 mps 764 mmHg 68%
    07:00 +5°C° 0 mm 3 mps 764 mmHg 67%
    08:00 +8°C° 0 mm 3 mps 764 mmHg 60%
    09:00 +11°C° 0 mm 3 mps 764 mmHg 53%
    10:00 +13°C° 0 mm 4 mps 763 mmHg 47%
    11:00 +14°C° 0 mm 4 mps 763 mmHg 44%
    12:00 +15°C° 0 mm 4 mps 762 mmHg 42%
    13:00 +16°C° 0 mm 5 mps 762 mmHg 40%
    14:00 +17°C° 0 mm 4 mps 761 mmHg 42%
    15:00 +15°C° 0 mm 4 mps 760 mmHg 45%
    16:00 +15°C° 0 mm 4 mps 760 mmHg 47%
    17:00 +14°C° 0 mm 4 mps 760 mmHg 51%
    18:00 +12°C° 0 mm 4 mps 760 mmHg 54%
    19:00 +11°C° 0 mm 4 mps 760 mmHg 57%
    20:00 +11°C° 0 mm 4 mps 759 mmHg 57%
    21:00 +10°C° 0 mm 3 mps 759 mmHg 58%
    22:00 +10°C° 0 mm 3 mps 759 mmHg 58%
    23:00 +10°C° 0 mm 3 mps 759 mmHg 59%

    27 September, Thursday

    Time Temperature Precipitation Wind Pressure Humidity
    00:00 +9°C° 0 mm 3 mps 759 mmHg 59%
    01:00 +9°C° 0 mm 3 mps 758 mmHg 59%
    02:00 +9°C° 0 mm 3 mps 758 mmHg 60%
    03:00 +9°C° 0 mm 3 mps 758 mmHg 61%
    04:00 +9°C° 0 mm 3 mps 758 mmHg 61%
    05:00 +9°C° 0 mm 3 mps 757 mmHg 61%
    06:00 +9°C° 0 mm 3 mps 757 mmHg 62%
    07:00 +10°C° 0 mm 3 mps 757 mmHg 62%
    08:00 +12°C° 0 mm 4 mps 757 mmHg 56%
    09:00 +14°C° 0 mm 4 mps 757 mmHg 50%
    10:00 +17°C° 0 mm 5 mps 757 mmHg 45%
    11:00 +19°C° 0 mm 5 mps 756 mmHg 44%
    12:00 +20°C° 0 mm 5 mps 756 mmHg 43%
    13:00 +21°C° 0 mm 5 mps 755 mmHg 42%
    14:00 +21°C° 0 mm 5 mps 755 mmHg 45%
    15:00 +21°C° 0 mm 4 mps 755 mmHg 48%
    16:00 +20°C° 0 mm 4 mps 754 mmHg 51%
    17:00 +19°C° 0 mm 3 mps 754 mmHg 55%
    18:00 +17°C° 0 mm 3 mps 754 mmHg 60%
    19:00 +14°C° 0 mm 3 mps 754 mmHg 64%
    20:00 +14°C° 0 mm 3 mps 754 mmHg 64%
    21:00 +14°C° 0 mm 3 mps 754 mmHg 64%
    22:00 +13°C° 0 mm 3 mps 754 mmHg 65%
    23:00 +13°C° 0 mm 3 mps 753 mmHg 65%

    28 September, Friday

    Time Temperature Precipitation Wind Pressure Humidity
    00:00 +13°C° 0 mm 3 mps 753 mmHg 66%
    01:00 +13°C° 0 mm 3 mps 752 mmHg 66%
    02:00 +12°C° 0 mm 3 mps 752 mmHg 68%
    03:00 +12°C° 0 mm 3 mps 752 mmHg 69%
    04:00 +12°C° 0 mm 3 mps 752 mmHg 71%
    05:00 +12°C° 0 mm 3 mps 752 mmHg 73%
    06:00 +13°C° 0 mm 3 mps 752 mmHg 75%
    07:00 +13°C° 0 mm 4 mps 753 mmHg 78%
    08:00 +13°C° 0.1 mm 3 mps 753 mmHg 78%
    09:00 +13°C° 0.1 mm 3 mps 753 mmHg 79%
    10:00 +13°C° 0.1 mm 3 mps 754 mmHg 80%
    11:00 +13°C° 0.1 mm 3 mps 754 mmHg 77%
    12:00 +14°C° 0.1 mm 2 mps 754 mmHg 74%
    13:00 +14°C° 0.1 mm 1 mps 754 mmHg 71%
    14:00 +14°C° 0 mm 1 mps 753 mmHg 68%
    15:00 +15°C° 0 mm 1 mps 753 mmHg 65%
    16:00 +15°C° 0 mm 1 mps 753 mmHg 63%
    17:00 +14°C° 0 mm 1 mps 753 mmHg 66%
    18:00 +13°C° 0 mm 1 mps 753 mmHg 69%
    19:00 +12°C° 0 mm 1 mps 753 mmHg 72%
    20:00 +12°C° 0 mm 1 mps 753 mmHg 73%
    21:00 +11°C° 0 mm 0 mps 753 mmHg 73%
    22:00 +11°C° 0 mm 0 mps 753 mmHg 74%
    23:00 +12°C° 0.4 mm 1 mps 753 mmHg 76%
    Show more